AAL1955 KBOS-KDCA

Flight info

Callsign AAL1955
Flight time 1h 9m
Altitude 32000
Route SSOXS7 SSOXS Q167 ZIZZI KNUKK ATR LAFLN DEALE3
Aircraft A20N/M-SDE2E3FGHIRWXY/LB1

Departure

Time 2026-05-05 22:33
Airport Boston Logan International Airport (KBOS)

Arrival

Time 2026-05-05 23:43
Airport Ronald Reagan Washington National Airport (KDCA)
Time Latitude Longitude Altitude Speed Heading
2026-05-05 21:45 42.36363 -71.01716 26 ft 0 kts 177°
2026-05-05 22:12 42.36378 -71.01717 29 ft 3 kts 177°
2026-05-05 22:13 42.36397 -71.01718 27 ft 3 kts 191°
2026-05-05 22:13 42.36415 -71.01706 27 ft 3 kts 218°
2026-05-05 22:13 42.36430 -71.01690 28 ft 3 kts 218°
2026-05-05 22:13 42.36438 -71.01681 29 ft 0 kts 212°
2026-05-05 22:14 42.36453 -71.01674 29 ft 3 kts 178°
2026-05-05 22:14 42.36469 -71.01680 27 ft 1 kts 153°
2026-05-05 22:16 42.36468 -71.01679 27 ft 0 kts 152°
2026-05-05 22:16 42.36460 -71.01670 27 ft 5 kts 138°
2026-05-05 22:17 42.36439 -71.01620 25 ft 6 kts 115°
2026-05-05 22:17 42.36424 -71.01569 25 ft 6 kts 105°
2026-05-05 22:17 42.36417 -71.01537 27 ft 0 kts 109°
2026-05-05 22:19 42.36410 -71.01515 26 ft 6 kts 115°
2026-05-05 22:19 42.36394 -71.01466 25 ft 5 kts 110°
2026-05-05 22:19 42.36395 -71.01427 25 ft 4 kts 71°
2026-05-05 22:20 42.36419 -71.01393 27 ft 8 kts 35°
2026-05-05 22:20 42.36495 -71.01348 26 ft 16 kts 23°
2026-05-05 22:20 42.36603 -71.01286 27 ft 14 kts 19°
2026-05-05 22:20 42.36687 -71.01252 29 ft 8 kts 14°
2026-05-05 22:21 42.36747 -71.01246 28 ft 10 kts 351°
2026-05-05 22:21 42.36814 -71.01282 27 ft 11 kts 348°
2026-05-05 22:21 42.36881 -71.01231 27 ft 12 kts 42°
2026-05-05 22:21 42.36946 -71.01153 27 ft 13 kts 38°
2026-05-05 22:22 42.37022 -71.01086 27 ft 14 kts 28°
2026-05-05 22:22 42.37115 -71.01026 24 ft 13 kts 25°
2026-05-05 22:22 42.37181 -71.00983 24 ft 8 kts 25°
2026-05-05 22:22 42.37197 -71.00973 25 ft 0 kts 25°
2026-05-05 22:23 42.37199 -71.00972 25 ft 0 kts 25°
2026-05-05 22:23 42.37200 -71.00971 25 ft 0 kts 25°
2026-05-05 22:23 42.37204 -71.00968 27 ft 2 kts 25°
2026-05-05 22:23 42.37223 -71.00956 24 ft 6 kts 25°
2026-05-05 22:24 42.37289 -71.00915 23 ft 15 kts 21°
2026-05-05 22:24 42.37412 -71.00852 24 ft 20 kts 20°
2026-05-05 22:24 42.37523 -71.00798 26 ft 14 kts 20°
2026-05-05 22:24 42.37614 -71.00753 27 ft 13 kts 19°
2026-05-05 22:25 42.37692 -71.00716 30 ft 11 kts 19°
2026-05-05 22:25 42.37747 -71.00689 31 ft 1 kts 20°
2026-05-05 22:25 42.37751 -71.00687 31 ft 1 kts 20°
2026-05-05 22:25 42.37760 -71.00682 31 ft 2 kts 20°
2026-05-05 22:26 42.37776 -71.00675 31 ft 3 kts 20°
2026-05-05 22:26 42.37801 -71.00662 31 ft 5 kts 21°
2026-05-05 22:26 42.37822 -71.00649 31 ft 0 kts 31°
2026-05-05 22:26 42.37829 -71.00642 31 ft 2 kts 40°
2026-05-05 22:27 42.37840 -71.00615 30 ft 4 kts 71°
2026-05-05 22:27 42.37841 -71.00601 30 ft 0 kts 86°
2026-05-05 22:27 42.37841 -71.00590 30 ft 2 kts 95°
2026-05-05 22:27 42.37840 -71.00584 30 ft 0 kts 103°
2026-05-05 22:28 42.37839 -71.00580 30 ft 1 kts 105°
2026-05-05 22:28 42.37838 -71.00576 30 ft 0 kts 108°
2026-05-05 22:29 42.37837 -71.00575 30 ft 1 kts 108°
2026-05-05 22:29 42.37823 -71.00524 29 ft 11 kts 112°
2026-05-05 22:29 42.37754 -71.00488 27 ft 8 kts 200°
2026-05-05 22:29 42.37750 -71.00490 27 ft 0 kts 200°
2026-05-05 22:33 42.37697 -71.00516 28 ft 31 kts 200°
2026-05-05 22:33 42.37275 -71.00720 23 ft 96 kts 199°
2026-05-05 22:33 42.36484 -71.01091 53 ft 141 kts 200°
2026-05-05 22:33 42.35563 -71.01463 790 ft 131 kts 195°
2026-05-05 22:34 42.34641 -71.01629 1349 ft 144 kts 179°
2026-05-05 22:34 42.33650 -71.01066 1787 ft 175 kts 152°
2026-05-05 22:34 42.32706 -70.99757 2152 ft 211 kts 138°
2026-05-05 22:34 42.31795 -70.98123 2828 ft 228 kts 130°
2026-05-05 22:35 42.31162 -70.96064 3553 ft 251 kts 111°
2026-05-05 22:35 42.30504 -70.93790 3959 ft 266 kts 133°
2026-05-05 22:35 42.29063 -70.92321 4594 ft 259 kts 169°
2026-05-05 22:35 42.27336 -70.92278 5373 ft 247 kts 204°
2026-05-05 22:36 42.25907 -70.93487 6296 ft 243 kts 224°
2026-05-05 22:36 42.24678 -70.95067 7163 ft 247 kts 230°
2026-05-05 22:36 42.23480 -70.96772 7965 ft 254 kts 230°
2026-05-05 22:36 42.22227 -70.98496 8806 ft 260 kts 229°
2026-05-05 22:37 42.20889 -71.00193 9633 ft 268 kts 227°
2026-05-05 22:37 42.19463 -71.01870 10353 ft 278 kts 224°
2026-05-05 22:37 42.17914 -71.03600 10712 ft 300 kts 223°
2026-05-05 22:37 42.16232 -71.05419 11074 ft 320 kts 222°
2026-05-05 22:38 42.14459 -71.07299 11726 ft 328 kts 221°
2026-05-05 22:38 42.12647 -71.09205 12516 ft 332 kts 221°
2026-05-05 22:38 42.10820 -71.11125 13367 ft 335 kts 221°
2026-05-05 22:38 42.08974 -71.13073 14116 ft 339 kts 221°
2026-05-05 22:39 42.07113 -71.15046 14827 ft 343 kts 221°
2026-05-05 22:39 42.05227 -71.17049 15545 ft 347 kts 221°
2026-05-05 22:39 42.03321 -71.19077 16285 ft 351 kts 221°
2026-05-05 22:39 42.01397 -71.21124 17003 ft 355 kts 221°
2026-05-05 22:40 41.99448 -71.23197 17711 ft 359 kts 221°
2026-05-05 22:40 41.97475 -71.25293 18389 ft 363 kts 222°
2026-05-05 22:40 41.95482 -71.27411 18957 ft 368 kts 222°
2026-05-05 22:40 41.93461 -71.29554 19527 ft 372 kts 222°
2026-05-05 22:41 41.91419 -71.31719 20102 ft 376 kts 222°
2026-05-05 22:41 41.89354 -71.33904 20667 ft 381 kts 222°
2026-05-05 22:41 41.87259 -71.36120 21217 ft 385 kts 222°
2026-05-05 22:41 41.85149 -71.38350 21788 ft 389 kts 222°
2026-05-05 22:42 41.83012 -71.40605 22331 ft 393 kts 223°
2026-05-05 22:42 41.80852 -71.42884 22925 ft 397 kts 223°
2026-05-05 22:42 41.78667 -71.45187 23450 ft 401 kts 223°
2026-05-05 22:42 41.76463 -71.47508 23901 ft 405 kts 223°
2026-05-05 22:43 41.74242 -71.49844 24342 ft 408 kts 223°
2026-05-05 22:43 41.72001 -71.52198 24779 ft 411 kts 223°
2026-05-05 22:43 41.69745 -71.54567 25223 ft 413 kts 223°
2026-05-05 22:43 41.67474 -71.56949 25650 ft 416 kts 223°
2026-05-05 22:44 41.65191 -71.59341 26066 ft 419 kts 223°
2026-05-05 22:44 41.62892 -71.61749 26470 ft 422 kts 223°
2026-05-05 22:44 41.60573 -71.64175 26871 ft 424 kts 223°
2026-05-05 22:44 41.58242 -71.66612 27260 ft 427 kts 223°
2026-05-05 22:45 41.55933 -71.69022 27635 ft 430 kts 223°
2026-05-05 22:45 41.53572 -71.71487 28027 ft 433 kts 223°
2026-05-05 22:45 41.51194 -71.73965 28397 ft 435 kts 223°
2026-05-05 22:45 41.48796 -71.76461 28765 ft 438 kts 223°
2026-05-05 22:46 41.46389 -71.78965 29112 ft 440 kts 223°
2026-05-05 22:46 41.43966 -71.81483 29446 ft 443 kts 224°
2026-05-05 22:46 41.41531 -71.84011 29795 ft 446 kts 224°
2026-05-05 22:46 41.39051 -71.86582 30128 ft 447 kts 224°
2026-05-05 22:47 41.36597 -71.89123 30505 ft 447 kts 224°
2026-05-05 22:47 41.34139 -71.91664 30854 ft 447 kts 224°
2026-05-05 22:47 41.31680 -71.94206 31152 ft 448 kts 224°
2026-05-05 22:47 41.29222 -71.96745 31482 ft 448 kts 224°
2026-05-05 22:48 41.26756 -71.99289 31804 ft 449 kts 224°
2026-05-05 22:48 41.24296 -72.01825 31917 ft 445 kts 224°
2026-05-05 22:48 41.21866 -72.04321 31926 ft 438 kts 224°
2026-05-05 22:49 41.17067 -72.09253 31930 ft 436 kts 224°
2026-05-05 22:49 41.12227 -72.14236 31932 ft 448 kts 224°
2026-05-05 22:50 41.07219 -72.19385 31932 ft 461 kts 223°
2026-05-05 22:50 41.02138 -72.24572 31933 ft 460 kts 223°
2026-05-05 22:51 40.97067 -72.29737 31933 ft 460 kts 223°
2026-05-05 22:51 40.91996 -72.34899 31934 ft 460 kts 223°
2026-05-05 22:52 40.86925 -72.40053 31934 ft 460 kts 223°
2026-05-05 22:52 40.81858 -72.45193 31936 ft 457 kts 223°
2026-05-05 22:53 40.76826 -72.50284 31934 ft 455 kts 223°
2026-05-05 22:53 40.71810 -72.55356 31934 ft 455 kts 223°
2026-05-05 22:54 40.66854 -72.60531 31936 ft 453 kts 226°
2026-05-05 22:54 40.62117 -72.65970 31940 ft 452 kts 227°
2026-05-05 22:55 40.57411 -72.71469 31935 ft 452 kts 227°
2026-05-05 22:55 40.52687 -72.76932 31941 ft 452 kts 226°
2026-05-05 22:56 40.47945 -72.82366 31941 ft 450 kts 226°
2026-05-05 22:56 40.43272 -72.87690 31942 ft 442 kts 226°
2026-05-05 22:57 40.38642 -72.92963 31941 ft 441 kts 226°
2026-05-05 22:57 40.34011 -72.98234 31941 ft 441 kts 226°
2026-05-05 22:58 40.29381 -73.03493 31941 ft 441 kts 226°
2026-05-05 22:58 40.24746 -73.08745 31939 ft 440 kts 226°
2026-05-05 22:59 40.20112 -73.13986 31941 ft 440 kts 226°
2026-05-05 22:59 40.15443 -73.19255 31945 ft 440 kts 226°
2026-05-05 23:00 40.08483 -73.27093 31960 ft 440 kts 226°
2026-05-05 23:00 40.03848 -73.32291 31955 ft 440 kts 226°
2026-05-05 23:01 39.99232 -73.37457 31953 ft 440 kts 226°
2026-05-05 23:01 39.94561 -73.42675 31957 ft 439 kts 225°
2026-05-05 23:02 39.89918 -73.47853 31954 ft 439 kts 225°
2026-05-05 23:02 39.85277 -73.53019 31960 ft 439 kts 225°
2026-05-05 23:03 39.80641 -73.58180 31960 ft 439 kts 225°
2026-05-05 23:03 39.76004 -73.63339 31963 ft 438 kts 225°
2026-05-05 23:04 39.71366 -73.68490 31962 ft 438 kts 225°
2026-05-05 23:04 39.66766 -73.73589 31964 ft 438 kts 225°
2026-05-05 23:05 39.62131 -73.78716 31964 ft 437 kts 225°
2026-05-05 23:05 39.57500 -73.83829 31967 ft 437 kts 225°
2026-05-05 23:06 39.52869 -73.88934 31966 ft 437 kts 225°
2026-05-05 23:06 39.48239 -73.94029 31963 ft 437 kts 224°
2026-05-05 23:07 39.44363 -73.98286 31972 ft 436 kts 224°
2026-05-05 23:07 39.39736 -74.03359 31967 ft 436 kts 224°
2026-05-05 23:08 39.35104 -74.08424 31972 ft 436 kts 224°
2026-05-05 23:08 39.30479 -74.13469 31972 ft 435 kts 224°
2026-05-05 23:09 39.25854 -74.18507 31966 ft 435 kts 224°
2026-05-05 23:09 39.21239 -74.23526 31626 ft 434 kts 224°
2026-05-05 23:10 39.18939 -74.26048 31372 ft 433 kts 226°
2026-05-05 23:10 39.16848 -74.28809 31109 ft 430 kts 233°
2026-05-05 23:10 39.15105 -74.31920 30860 ft 426 kts 243°
2026-05-05 23:10 39.13809 -74.35320 30610 ft 422 kts 252°
2026-05-05 23:11 39.12898 -74.38908 30369 ft 421 kts 256°
2026-05-05 23:11 39.12103 -74.42543 30119 ft 422 kts 257°
2026-05-05 23:11 39.11314 -74.46241 29838 ft 423 kts 257°
2026-05-05 23:11 39.10533 -74.49892 29556 ft 424 kts 257°
2026-05-05 23:12 39.09745 -74.53557 29269 ft 424 kts 257°
2026-05-05 23:12 39.08953 -74.57222 28979 ft 425 kts 257°
2026-05-05 23:12 39.08161 -74.60877 28702 ft 424 kts 256°
2026-05-05 23:12 39.07376 -74.64482 28431 ft 412 kts 256°
2026-05-05 23:13 39.06611 -74.67988 28161 ft 401 kts 257°
2026-05-05 23:13 39.05867 -74.71393 27888 ft 390 kts 257°
2026-05-05 23:13 39.05142 -74.74711 27629 ft 383 kts 257°
2026-05-05 23:13 39.04423 -74.77999 27368 ft 381 kts 256°
2026-05-05 23:14 39.03706 -74.81279 27104 ft 381 kts 256°
2026-05-05 23:14 39.02987 -74.84555 26841 ft 380 kts 256°
2026-05-05 23:14 39.02262 -74.87857 26580 ft 378 kts 256°
2026-05-05 23:14 39.01548 -74.91099 26321 ft 376 kts 256°
2026-05-05 23:15 39.00836 -74.94328 26063 ft 375 kts 256°
2026-05-05 23:15 39.00125 -74.97550 25833 ft 373 kts 256°
2026-05-05 23:15 38.99418 -75.00749 25572 ft 372 kts 256°
2026-05-05 23:15 38.98711 -75.03941 25326 ft 370 kts 256°
2026-05-05 23:16 38.98011 -75.07099 25086 ft 369 kts 256°
2026-05-05 23:16 38.97305 -75.10278 24834 ft 367 kts 256°
2026-05-05 23:16 38.96607 -75.13417 24593 ft 365 kts 256°
2026-05-05 23:16 38.95898 -75.16597 24346 ft 364 kts 256°
2026-05-05 23:17 38.95204 -75.19712 24111 ft 363 kts 256°
2026-05-05 23:17 38.94508 -75.22829 23871 ft 361 kts 256°
2026-05-05 23:17 38.93809 -75.25956 23603 ft 360 kts 256°
2026-05-05 23:17 38.93121 -75.29027 23351 ft 358 kts 256°
2026-05-05 23:18 38.92431 -75.32105 23072 ft 357 kts 256°
2026-05-05 23:18 38.91744 -75.35166 22792 ft 355 kts 256°
2026-05-05 23:18 38.91052 -75.38243 22530 ft 354 kts 256°
2026-05-05 23:18 38.90378 -75.41237 22084 ft 353 kts 255°
2026-05-05 23:19 38.89689 -75.44294 21580 ft 350 kts 255°
2026-05-05 23:19 38.89015 -75.47280 21094 ft 347 kts 255°
2026-05-05 23:19 38.88345 -75.50240 20600 ft 345 kts 255°
2026-05-05 23:19 38.87679 -75.53184 20092 ft 342 kts 255°
2026-05-05 23:20 38.87017 -75.56104 19593 ft 340 kts 255°
2026-05-05 23:20 38.86361 -75.58997 19098 ft 337 kts 255°
2026-05-05 23:20 38.85712 -75.61855 18600 ft 336 kts 255°
2026-05-05 23:20 38.85051 -75.64761 18062 ft 335 kts 254°
2026-05-05 23:21 38.84402 -75.67610 17533 ft 331 kts 254°
2026-05-05 23:21 38.83758 -75.70433 17048 ft 327 kts 254°
2026-05-05 23:21 38.83121 -75.73221 16574 ft 324 kts 254°
2026-05-05 23:21 38.82490 -75.75979 16102 ft 321 kts 254°
2026-05-05 23:22 38.81862 -75.78722 15624 ft 319 kts 254°
2026-05-05 23:22 38.81238 -75.81445 15136 ft 317 kts 254°
2026-05-05 23:22 38.80621 -75.84135 14670 ft 314 kts 254°
2026-05-05 23:22 38.80007 -75.86810 14223 ft 312 kts 254°
2026-05-05 23:23 38.79394 -75.89470 13759 ft 310 kts 254°
2026-05-05 23:23 38.78787 -75.92108 13231 ft 307 kts 254°
2026-05-05 23:23 38.78184 -75.94722 12774 ft 304 kts 254°
2026-05-05 23:23 38.77587 -75.97308 12314 ft 302 kts 255°
2026-05-05 23:24 38.76997 -75.99861 11867 ft 299 kts 255°
2026-05-05 23:24 38.76404 -76.02424 11432 ft 297 kts 255°
2026-05-05 23:24 38.75843 -76.04957 11108 ft 294 kts 258°
2026-05-05 23:24 38.75607 -76.07539 10956 ft 292 kts 270°
2026-05-05 23:25 38.75752 -76.10131 10897 ft 292 kts 275°
2026-05-05 23:25 38.75992 -76.12711 10849 ft 291 kts 276°
2026-05-05 23:25 38.76244 -76.15284 10802 ft 291 kts 276°
2026-05-05 23:25 38.76492 -76.17848 10745 ft 290 kts 276°
2026-05-05 23:26 38.76737 -76.20413 10696 ft 290 kts 276°
2026-05-05 23:26 38.76979 -76.22975 10642 ft 290 kts 276°
2026-05-05 23:26 38.77219 -76.25536 10586 ft 289 kts 276°
2026-05-05 23:26 38.77458 -76.28094 10542 ft 288 kts 276°
2026-05-05 23:27 38.77695 -76.30641 10489 ft 288 kts 276°
2026-05-05 23:27 38.77931 -76.33181 10434 ft 288 kts 276°
2026-05-05 23:27 38.78166 -76.35731 10386 ft 288 kts 276°
2026-05-05 23:27 38.78404 -76.38306 10328 ft 288 kts 276°
2026-05-05 23:28 38.78635 -76.40819 10276 ft 288 kts 276°
2026-05-05 23:28 38.78871 -76.43395 10221 ft 287 kts 276°
2026-05-05 23:28 38.79101 -76.45901 10144 ft 277 kts 276°
2026-05-05 23:28 38.79319 -76.48288 10074 ft 265 kts 275°
2026-05-05 23:29 38.79533 -76.50634 10012 ft 263 kts 275°
2026-05-05 23:29 38.79725 -76.52955 9935 ft 259 kts 273°
2026-05-05 23:29 38.79837 -76.55253 9833 ft 258 kts 272°
2026-05-05 23:29 38.79922 -76.57544 9614 ft 257 kts 271°
2026-05-05 23:30 38.80001 -76.59827 9395 ft 256 kts 271°
2026-05-05 23:30 38.80052 -76.61340 9255 ft 256 kts 271°
2026-05-05 23:30 38.80154 -76.64389 8976 ft 256 kts 270°
2026-05-05 23:30 38.80229 -76.66668 8766 ft 256 kts 270°
2026-05-05 23:31 38.80306 -76.68947 8555 ft 256 kts 270°
2026-05-05 23:31 38.80381 -76.71220 8343 ft 255 kts 270°
2026-05-05 23:31 38.80456 -76.73491 8136 ft 255 kts 270°
2026-05-05 23:31 38.80534 -76.75759 7893 ft 255 kts 271°
2026-05-05 23:32 38.80859 -76.77994 7692 ft 258 kts 286°
2026-05-05 23:32 38.81747 -76.80028 7452 ft 264 kts 300°
2026-05-05 23:32 38.82871 -76.81889 7267 ft 265 kts 303°
2026-05-05 23:32 38.84036 -76.83731 7074 ft 266 kts 303°
2026-05-05 23:33 38.85201 -76.85571 6864 ft 266 kts 303°
2026-05-05 23:33 38.86362 -76.87419 6628 ft 266 kts 303°
2026-05-05 23:33 38.87512 -76.89238 6392 ft 267 kts 305°
2026-05-05 23:33 38.88783 -76.90977 6197 ft 268 kts 308°
2026-05-05 23:34 38.90105 -76.92676 6022 ft 269 kts 309°
2026-05-05 23:34 38.91436 -76.94371 6001 ft 270 kts 309°
2026-05-05 23:34 38.92771 -76.96071 5999 ft 270 kts 309°
2026-05-05 23:34 38.94107 -76.97775 5999 ft 271 kts 309°
2026-05-05 23:35 38.95440 -76.99478 6001 ft 270 kts 309°
2026-05-05 23:35 38.96785 -77.01200 5688 ft 272 kts 309°
2026-05-05 23:35 38.98110 -77.02894 5481 ft 269 kts 309°
2026-05-05 23:35 38.99432 -77.04587 5201 ft 268 kts 309°
2026-05-05 23:36 39.00751 -77.06279 4905 ft 267 kts 309°
2026-05-05 23:36 39.02064 -77.07965 4610 ft 267 kts 309°
2026-05-05 23:36 39.03378 -77.09643 4304 ft 266 kts 309°
2026-05-05 23:36 39.04706 -77.11303 4019 ft 266 kts 310°
2026-05-05 23:37 39.05923 -77.13061 3724 ft 258 kts 294°
2026-05-05 23:37 39.06412 -77.15187 3426 ft 243 kts 265°
2026-05-05 23:37 39.06244 -77.16580 3235 ft 234 kts 246°
2026-05-05 23:37 39.05320 -77.18217 3038 ft 219 kts 215°
2026-05-05 23:38 39.03946 -77.18839 3012 ft 206 kts 187°
2026-05-05 23:38 39.02541 -77.18799 3013 ft 200 kts 180°
2026-05-05 23:38 39.01153 -77.18638 3009 ft 201 kts 179°
2026-05-05 23:38 38.99757 -77.18471 3008 ft 202 kts 179°
2026-05-05 23:39 38.98353 -77.18223 2993 ft 208 kts 168°
2026-05-05 23:39 38.97058 -77.17331 2989 ft 215 kts 152°
2026-05-05 23:39 38.95922 -77.16038 2989 ft 221 kts 141°
2026-05-05 23:39 38.94943 -77.14537 2977 ft 214 kts 136°
2026-05-05 23:40 38.94093 -77.13057 2894 ft 199 kts 135°
2026-05-05 23:40 38.93217 -77.11837 2768 ft 176 kts 152°
2026-05-05 23:40 38.92215 -77.11040 2512 ft 166 kts 158°
2026-05-05 23:40 38.91370 -77.10017 2243 ft 172 kts 134°
2026-05-05 23:41 38.90712 -77.08667 1815 ft 183 kts 127°
2026-05-05 23:41 38.90100 -77.07235 1445 ft 181 kts 126°
2026-05-05 23:41 38.89452 -77.06001 1168 ft 166 kts 139°
2026-05-05 23:41 38.88656 -77.05067 888 ft 161 kts 147°
2026-05-05 23:42 38.87762 -77.04219 569 ft 159 kts 156°
2026-05-05 23:42 38.86737 -77.03873 248 ft 147 kts 180°
2026-05-05 23:42 38.85741 -77.03828 62 ft 138 kts 177°
2026-05-05 23:42 38.84843 -77.03756 23 ft 110 kts 178°
2026-05-05 23:43 38.84457 -77.03720 23 ft 22 kts 180°
2026-05-05 23:43 38.84395 -77.03786 25 ft 6 kts 265°
2026-05-05 23:43 38.84399 -77.03811 26 ft 0 kts 290°
2026-05-05 23:43 38.84400 -77.03813 26 ft 2 kts 294°
2026-05-05 23:44 38.84441 -77.03846 28 ft 13 kts 347°
2026-05-05 23:44 38.84557 -77.03859 23 ft 18 kts 356°
2026-05-05 23:44 38.84671 -77.03870 25 ft 17 kts 355°
2026-05-05 23:44 38.84787 -77.03880 23 ft 17 kts 356°
2026-05-05 23:45 38.84903 -77.03891 20 ft 15 kts 356°
2026-05-05 23:45 38.85009 -77.03904 21 ft 15 kts 353°
2026-05-05 23:45 38.85106 -77.03918 22 ft 14 kts 347°
2026-05-05 23:45 38.85193 -77.03972 22 ft 14 kts 342°
2026-05-05 23:46 38.85275 -77.03991 23 ft 4 kts 357°
2026-05-05 23:46 38.85303 -77.03993 23 ft 4 kts 356°
2026-05-05 23:46 38.85317 -77.03994 24 ft 0 kts 357°
2026-05-05 23:46 38.85329 -77.03995 24 ft 5 kts 356°
2026-05-05 23:47 38.85391 -77.04000 25 ft 14 kts 356°
2026-05-05 23:47 38.85492 -77.04019 26 ft 14 kts 337°
2026-05-05 23:47 38.85535 -77.04105 27 ft 8 kts 279°
2026-05-05 23:47 38.85532 -77.04126 27 ft 0 kts 252°
2026-05-05 23:48 38.85527 -77.04127 27 ft 2 kts 192°
2026-05-05 23:48 38.85475 -77.04084 28 ft 15 kts 145°
2026-05-05 23:48 38.85354 -77.04069 26 ft 19 kts 207°
2026-05-05 23:49 38.85327 -77.04100 26 ft 0 kts 231°
2026-05-05 23:49 38.85326 -77.04103 26 ft 1 kts 232°
2026-05-05 23:49 38.85312 -77.04127 28 ft 7 kts 235°
2026-05-05 23:49 38.85269 -77.04151 26 ft 9 kts 183°
2026-05-05 23:50 38.85247 -77.04158 26 ft 1 kts 208°
2026-05-05 23:50 38.85244 -77.04156 26 ft 0 kts 162°